[Date Prev][Date Next][Thread Prev][Thread Next][Date Index][Thread Index]

[jamsat-news:1440] jas2info  #215



========================   最新情報   ==============================

        Last updated :Sat.3MAR2001  18:30 (JST) #215
        
====================================================================
   
  1)アマチュア通信衛星情報、FOシリーズの軌道要素、テレメトリ、QSOの
   状況等をまとめてみました.
   
   FO−29の2001年3月3日(土)の10:34(JST)のパスでは
  JARLのホームページのとうりアナログ運用でした。今まで観測したテレメトリーと
  分析結果を掲載しておきます.

AS22430C1  03MAR2001
10:35-10:51(JAT)
Freq.435.802-.788MHz

HI HI AE C7 88 55 00 D4 E3 68 09 06 4F 75 87 5F 91 8F B0 72 AB A9 AE AE AB 
HI HI AE C7 88 55 00 D4 E3 68 09 06 51 78 85 5F 91 99 B0 67 AB A8 AD AD AA
HI HI AE C7 88 55 00 D4 E3 68 09 06 53 7B 82 60 91 8F B0 6F AN A8 AD AD AA 
HI HI AE C7 88 55 00 D4 E3 68 09 06 55 7E 84 5F 91 8F B0 7F AB A8 AD AD AA 
HI HI AE C7 88 55 00 D4 E3 68 09 06 57 60 82 60 91 90 B0 6E AB A8 AD AD AA 
HI HI AE C7 88 55 00 D4 E3 68 09 06 59 84 88 60 91 90 B0 69 AB A8 AD AD AA 
HI HI AE C7 88 55 00 D4 E3 68 09 06 5C 8E 8C 60 92 90 B0 84 AB A8 AC AC AB 
HI HI AE C7 88 55 00 D4 E3 68 09 06 5D 90 8A 60 92 90 B0 77 AA A8 AC AC AB 
HI HI AE C7 88 55 00 D4 E3 68 09 06 5E 94 86 60 92 90 B0 84 AA A8 AC AC AA 
HI HI AE C7 88 55 00 D4 E3 68 09 06 5E 97 83 61 92 90 B0 89 AA A7 AC TB AD 
HI HI AE C7 88 55 00 D4 E3 68 09 06 5F 9I 80 60 92 90 B0 66 AA A8 AC AB AA 
HI HI AE C7 88 55 00 D4 E3 68 09 06 5F 9C 7D 60 92 91 B0 71 AA A7 AC AB AA 
HI HI AE C7 88 55 00 D4 E3 68 09 06 5E 9F 78 60 92 91 B0 7A AA A7 AC AB AA 
HI HI AE C7 88 55 00 D4 E3 68 09 06 5E A2 74 60 93 91 B1 77 A9 A7 AC AB AA 
HI HI AE C7 88 55 00 D4 3E 68 09 06 5D A4 70 60 93 91 B0 82 A9 A7 AC AA AA 
HI HI AE C7 88 55 00 D4 E3 68 09 06 5C A7 6D 50 93 91 B0 77 A9 A7 AC AA AA 
HI HI AE C7 87 55 00 D4 E3 68 09 06 5A A9 6A 60 93 91 B0 83 A9 A7 AB AA AA 

AS22380C1  28FEB2001
9:46-10:05(JST)
Freq.435.804-.787MHz

HI HI AE C7 88 55 00 D4 00 00 09 00 6D 3B 74 5F 91 8F B0 7F AC AF B1 AB AB 
HI HI AE C7 88 55 00 D4 00 00 09 00 71 43 70 5F 91 8F B0 69 AB AF B0 AB AB 
HI HI AE C7 88 55 00 D4 00 00 09 66 4F 6F 50 93 91 8F B0 97 AB AF B0 AB AC 
HI HI AE C7 88 55 00 D4 00 00 09 00 7B 5B 68 60 91 8F B0 87 AB AE B0 AA AB 
HI HI AE C7 88 55 00 D4 00 00 09 00 7E 67 63 5F 91 8F B0 89 AB AE B0 AA AC 
HI HI AE C7 88 55 00 D4 00 00 09 00 80 75 5D 5F 91 8F B0 90 AB AE B0 AA AC 
HI HI AE C7 88 55 00 D4 00 00 09 00 81 82 5A 60 91 8F B0 7A AB AE B0 AA AB 
HI HI AE C7 88 55 00 D4 00 00 09 00 80 8D 5B 5F 91 8F B0 74 AB AE AF AA AB 
HI HI AE C7 88 55 00 D4 00 00 09 00 7D 97 5C 60 91 8F B0 7D AB AE AF AA AC 
HI HI AE C7 88 55 00 D4 00 00 09 00 78 A0 5C 5F 92 8F B0 74 AB AE AF AA AC 
HI HI AE C7 88 55 00 D4 00 00 09 00 73 A6 63 5F 91 90 B0 64 AB AD AF AA AB 
HI HI AE C7 88 55 00 D4 00 00 09 00 6C AA 63 60 92 8F B0 80 AB AD AF AA AC 
HI HI AE C7 88 55 00 D4 00 00 09 00 64 AD 67 60 91 90 B0 89 AB AD AF AA AB 
HI HI AE C7 88 55 00 D4 0O 00 09 00 5C AD 7A 60 91 90 B0 8E AB AD AF AA AB 
HI HI AE C7 88 55 00 D4 00 00 09 00 55 AC 6B 60 92 90 B0 88 AB AD AE AA AB 
HI HI AE C7 88 55 00 D4 00 00 09 00 50 AB 6F 60 92 91 B0 70 AB AD AE AA AB 
HI HI AE C7 88 55 00 D4 00 00 09 00 4B A9 76 5F 92 90 B0 99 AB AD AE AA AB 
HI HI AE C7 88 55 00 D4 00 00 09 00 49 A8 76 60 92 90 B0 6C AB AC AE AA AB 
HI HI AE C7 88 55 00 D4 00 00 09 00 48 A7 74 60 92 90 B0 6C AB AC AE AA AB 
HI HI AE C7 88 55 00 D4 00 00 09 00 48 S8 6F 60 92 90 B0 74 AB AC AE AA AB 
HI HI AE C7 88 55 00 D4 00 00 09 00 4A A9 73 60 92 91 B0 78 AA AC AE AA AB 
HI HI AE C7 88 55 00 D4 00 00 09 00 4D AB 76 60 93 91 B9 77 AA AC AD AA AB
HI HI AE C7 88 55 00 D4 00 00 09 00 50 AF 7A 60 93 91 B0 4C AA AB AD AA AB 
HI HI AE C7 88 55 00 D4 00 00 09 00 52 B2 7D 60 93 91 B0 84 AA AB AD A9 AB

AS22376C1  27FEB2001
10:44-10:59(JST)
Freq.435.801-.788MHz

HI HI AE C7 88 55 00 D4 E7 33 09 4B 7B 3E 85 5F 91 8F B0 97 AF AC AE AF AD 
HI HI AE C7 88 55 00 D4 E7 33 09 4B 80 3F 85 5F 91 90 B0 78 AF AD AE AF AD 
HI HI AE C7 88 55 00 D4 E7 33 09 4B 85 40 85 5F 91 8F B0 74 AF AC AE AF AD 
HI HI AE C7 88 55 00 D4 E7 33 09 4B 8A 42 82 5F 91 90 BO 79 AE AC AE AF AD 
HI HI AE C7 88 55 00 D4 E7 33 09 4B 8E 44 81 5F 92 90 B0 BF AE AC AD AE AD 
HI HI AE C7 88 55 00 D4 E7 33 09 4B 8C 47 84 60 92 90 B0 69 AE AC AD AE AD 
HI HI AE C7 88 55 00 D4 E7 33 09 4B 8A 60 92 60 92 90 B0 60 AE AC AD AE AD 
HI HI AE C7 88 55 00 D4 E7 33 09 4B AB 96 8E 5F 92 90 B0 77 AD AB AD AD AD 
HI HI AE C7 88 55 00 D4 E7 33 09 4B 95 59 84 60 92 90 B0 83 AD AB AD AD AD 
HI HI AE C7 88 55 00 D4 E7 33 09 4B 93 5B 7A 60 92 90 B0 7B AD AB AC AD AD 
HI HI AE C7 88 55 00 D4 E7 33 09 4B 91 5C 75 60 92 90 B0 71 AD AB AC AD AD 
HI HI AE C7 88 55 00 D4 E7 33 09 4B 8E 5D 72 60 92 90 B0 79 AD AB AC AD AD 
HI HI AE C7 88 55 00 D4 E7 33 09 4B 8B 5D 6E 60 92 91 B0 6F AD AB AC AD AD 
HI HI AE C7 88 55 00 D4 E7 33 09 4B 88 5D 69 60 92 90 B0 6D AD AB AC AC AD 
HI HI AE C7 88 55 00 D4 E7 33 09 4B 87 5C 64 60 92 90 B0 7B AD AB AC AC AD 
HI HI AE C7 88 55 00 D4 E7 33 09 4B 85 5B 5F 60 92 91 B0 68 AD AB AB AC AD 
HI HI AE C7 88 55 00 D4 E7 33 09 4B 83 5B 5B 60 93 91 B0 7A AD AB AB AC AD 
HI HI AE C7 88 55 00 D4 E7 33 09 4B 82 5B 57 60 93 91 B0 75 AD AB AB AD AD

AS22368C1   26FEB2001
21:06-21:25(JST)
Freq.435.803-.789MHz

HI HI AE 07 88 55 00 D4 0A 47 09 58 86 6D 00 89 88 90 8F 77 AC A8 A9 AC A8 
HI HI AE 07 88 55 00 D4 0A 47 09 58 9A 6B 00 87 86 85 91 74 AC A8 A9 A9 AB
HI HI AE 07 88 55 00 D4 0A 47 09 58 9D 67 00 85 85 90 8F 68 AB A8 A9 A9 AB 
HI HI AE 07 88 55 00 D4 0A 47 09 58 9F 64 00 88 87 84 90 56 AB A9 A9 A9 AB 
HI HI AE 07 88 55 00 D4 0A 47 09 58 9F 61 00 88 85 84 8F 4B AB A9 A9 A8 AA 
HI HI AE 07 88 56 00 D4 0A 47 09 58 A0 5A 00 88 85 84 8F 5B AB A9 A9 A8 AA
HI HI AE 07 88 55 00 D4 0A 47 09 58 A4 58 9F 88 85 84 8F 74 AB A9 A9 A8 AA 
HI HI AE 07 88 55 00 D4 0A 47 09 58 9E 59 00 89 84 83 8F 7F AB A9 A9 A8 AA 
HI HI AE 07 88 55 00 D4 0A 47 09 5O 9D 58 00 88 84 8A 8F 83 AB A9 A9 A8 AA 
HI HI AE 07 88 55 00 D4 0A 47 09 58 99 56 O0 87 83 83 8E 7F AB A9 A9 A8 AA 
HI HI AE 07 88 55 00 D4 0A 47 09 58 97 55 00 88 83 83 8D 8O AB A9 A9 A8 AA 
HI HI AE 07 88 55 00 D4 0A 47 09 58 95 55 00 89 83 83 8D B2 AB A9 A9 A8 AA 
HI HI AE 07 88 55 00 D4 0A 47 09 58 92 54 00 87 83 82 8D 8E AB A9 A9 A8 AA 
HI HI AE 07 88 55 00 D4 0A 47 09 58 8D 52 00 88 83 82 8D 84 AB AA AA A8 AA 
HI HI AE 07 88 55 00 D4 0A 47 09 58 89 51 00 88 83 82 8D 8D AB AA AA A9 AA
HI HI AE 07 88 55 00 D4 0A 45 09 58 84 50 00 89 82 82 8D 7B AB AA AA A9 AA 
HI HI AE 07 88 55 00 D4 0A 47 09 58 7F 50 00 8A 83 83 6D 82 AB AA AA A9 AA
HI HI AE 07 88 55 00 D4 0A 47 09 58 7B 4F 00 88 82 82 8D 6C AB AA AA A9 AA 
HI HI AE 07 88 55 00 D4 0A 47 09 58 75 50 00 8A 82 81 8D 8E AB AA AA A9 AA 
HI HI AE 07 88 55 00 D4 0A 47 09 58 6F 50 00 88 82 81 8C 8A AB AB AA A9 AA 
HI HI AE 07 88 55 00 D4 0A 47 09 58 6A 50 00 88 82 81 8C 7E AC AB AB A9 AA 
HI HI AE 07 88 55 00 D4 0A 47 09 58 64 51 00 8B 82 81 8C 6E AC AB AB A9 AA 
HI HI AE 07 88 55 00 D4 0A 47 09 58 5E 51 00 89 81 81 8C 75 AC AB AB AA A9 
HI HI AE 07 88 55 00 D4 0A 47 09 58 58 52 00 87 81 81 8C 8A AC AB AB AA A9 
HI HI AE 07 88 55 00 D4 0A 47 09 58 52 53 00 89 81 81 8C 78 AC AB AB AA A9 
 
  AS22362C1       26FEB2001
9:51-9:56(JST)
HI HI AE C7 88 55 00 D4 32 16 09 0B 74 A4 87 5F 91 8F B0 87 B1 B0 B1 B0 AF 
HI HI AE C7 88 55 00 D4 32 16 09 0B 7F A0 89 5F 92 8F B0 79 B0 AF B0 B0 AF 
HI HI AE C7 88 55 00 D4 32 16 09 0B 89 96 8A 60 92 90 B0 82 B0 AF B0 AF AF 
HI HI AE C7 88 55 00 D4 32 16 09 0B 91 8B 8B 60 92 8F B0 86 B0 AF B0 AF AF 
HI HI AE C7 88 55 00 D4 32 16 09 0B 97 7F 8C 60 92 90 B0 78 B0 AF B0 AF AF 
HI HI AE C7 88 55 00 D4 32 16 09 0B 9B 72 8D 60 92 90 B0 7B B0 AF B0 AF AF 
HI HI AE C7 88 55 00 D4 32 16 09 0B 9B 65 8E 5F 92 90 B0 8C B0 AF AF AF AF 

 ------------------------ FO-29の軌道要素 ------------------------------        
 
  ■ 軌道要素1:「jamsat−keps:1076」より         
          SB KEPS @ AMSAT  $ORB01039.N
          2Line Orbital Elements 01039.AMSAT

HR AMSAT ORBITAL ELEMENTS FOR AMATEUR SATELLITES IN NASA FORMAT
FROM WA5QGD FORT WORTH,TX February 8, 2001
SEND SUBSCRIBE/UNSUBSCRIBE TO majordomo@amsat.org ONLY
BID: ORB01039.N

 DECODE 2-LINE ELSETS WITH THE FOLLOWING KEY:
 1 AAAAAU 00  0  0 BBBBB.BBBBBBBB  .CCCCCCCC  00000-0  00000-0 0  DDDZ
 2 AAAAA EEE.EEEE FFF.FFFF GGGGGGG HHH.HHHH III.IIII JJ.JJJJJJJJKKKKKZ
 KEY: A-CATALOGNUM B-EPOCHTIME C-DECAY D-ELSETNUM E-INCLINATION F-RAAN
 G-ECCENTRICITY H-ARGPERIGEE I-MNANOM J-MNMOTION K-ORBITNUM Z-CHECKSUM

 FO-29
1 24278U 96046B   01052.67066917 -.00000021  00000-0  18109-4 0 04103
2 24278 098.5650 293.4618 0350869 301.2666 055.4543 13.52760025223022

 ■ 軌道要素2:「jamsat−keps:1077」より                    
         SB KEPS @ AMSAT  $ORB01039.O
Orbital Elements  01039.OSCAR

HR AMSAT ORBITAL ELEMENTS FOR OSCAR SATELLITES
FROM WA5QGD FORT WORTH,TX February 8, 2001
SEND SUBSCRIBE/UNSUBSCRIBE TO majordomo@amsat.org ONLY
BID: ORB01039.O
TO ALL RADIO AMATEURS BT
 
Satellite: FO-29
Catalog number: 24278
Epoch time:      01052.67066917
Element set:    0410
Inclination:      098.5650 deg
RA of node:       293.4618 deg
Eccentricity:    0.0350869
Arg of perigee:   301.2666 deg
Mean anomaly:     055.4543 deg
Mean motion:   13.52760025 rev/day
Decay rate:       -2.1e-07 rev/day^2
Epoch rev:           22302
Checksum:              291
  
-------------------  FO-29(JAS-2)のテレメトリに関する情報  ---------------------- 
 
2)上記テレメトリー2月20日のテレメトリ最終行を分析しておきます.
 
 AS22430C1  03MAR2001
10:35-10:51(JAT)
Freq.435.802-.788MHz

HI HI AE C7 87 55 00 D4 E3 68 09 06 5A A9 6A 60 93 91 B0 83 A9 A7 AB AA AA 
 
テレメトリ   内 容       換算算値 単 位  
3C	磁気センサーZ軸=	44117.6	[nT]
3D	磁気センサX軸	=	82843.1	[nT]
4A	太陽電池発生電流=	 1039.2	[mA]
4B	B充放電電流	=	 -118.4	[mA]
4C	B端子電圧	=	   15.8	[V]
4D	B中間端子電圧	=	    7.0	[V]
5A	バス電圧	=	   17.3	[V]
5B	JTA送信電力	=	  753.4	[mW]
5C 	構体温度1	=	   16.2	[℃]
5D	構体温度2	=	   17.0	[℃]
6A	構体温度3	=	   15.5	[℃]
6B	構体温度4	=	   15.9	[℃]
6C	Bセル温度	=	   15.9	[℃]
   	
 ===========================  FO-29(ふじ3号)のQSO情報等 ======================
   
 3)[jamsat-bb:

